Date,TemperatureHighF,TemperatureAvgF,TemperatureLowF,DewpointHighF,DewpointAvgF,DewpointLowF,HumidityHigh,HumidityAvg,HumidityLow,PressureMaxIn,PressureMinIn,WindSpeedMaxMPH,WindSpeedAvgMPH,GustSpeedMaxMPH,PrecipitationSumIn
2013-9-1,78.6,74.0,71.7,73.6,71.2,69.6,94,91,84,29.89,29.84,2,1,7,0.00
2013-9-2,75.5,72.9,71.0,73.0,70.9,69.2,95,94,91,29.85,29.73,1,0,5,0.04
2013-9-3,73.6,69.6,64.4,72.1,67.9,61.4,95,94,91,29.86,29.72,4,0,6,2.41
2013-9-4,79.8,69.1,58.7,65.9,61.4,57.0,95,78,50,29.98,29.86,3,1,6,0.00
2013-9-5,77.3,68.6,62.4,64.7,58.3,47.9,93,72,43,30.13,29.92,3,1,10,0.00
2013-9-6,71.0,62.1,52.3,51.5,48.8,44.8,90,63,44,30.25,30.13,4,1,8,0.00
2013-9-7,75.5,62.8,49.4,61.7,53.4,47.2,93,74,48,30.13,29.91,2,1,6,0.00
2013-9-8,81.4,71.6,63.0,65.9,59.7,45.1,88,67,46,30.08,29.80,3,1,7,0.00
2013-9-9,70.1,60.9,49.4,56.8,49.0,45.1,89,66,49,30.26,30.08,3,0,6,0.00
2013-9-10,74.8,69.0,65.3,69.2,64.4,57.5,93,86,76,30.19,30.07,3,0,8,0.05
2013-9-11,82.1,74.6,70.4,73.6,70.4,68.3,93,87,74,30.14,30.03,2,1,5,0.00
2013-9-12,77.5,72.5,69.7,72.6,69.7,67.6,94,91,84,30.03,29.72,3,0,8,0.59
2013-9-13,77.5,69.9,62.1,69.9,65.1,56.3,94,85,67,29.80,29.63,3,1,6,0.02
2013-9-14,69.8,61.4,55.5,56.5,53.5,51.2,87,76,56,30.10,29.80,3,1,7,0.00
2013-9-15,70.2,59.4,48.9,56.2,51.9,46.7,93,77,54,30.20,30.09,2,0,6,0.00
2013-9-16,70.7,62.9,57.8,60.6,56.3,44.0,93,80,58,30.21,30.05,4,1,8,0.00
2013-9-17,63.8,53.8,45.2,47.3,42.3,39.2,90,66,46,30.42,30.21,5,2,17,0.00
2013-9-18,71.0,55.0,41.9,52.9,46.8,39.7,94,77,44,30.35,30.19,2,0,4,0.00
2013-9-19,74.6,59.4,50.7,58.8,52.7,48.2,92,80,55,30.20,30.12,2,0,9,0.00
2013-9-21,77.8,71.3,65.6,68.8,66.6,63.5,93,85,74,29.97,29.73,3,2,13,0.00
2013-9-22,73.4,65.9,56.0,66.9,58.1,44.3,94,77,52,29.88,29.66,4,1,12,0.73
2013-9-23,65.8,57.1,50.7,48.1,45.8,43.8,79,67,50,30.02,29.87,3,1,8,0.00
2013-9-24,70.1,57.8,47.0,52.3,46.7,43.0,87,68,45,30.04,29.85,4,1,8,0.00
2013-9-25,73.1,59.4,46.8,56.1,50.6,44.3,93,75,46,29.95,29.88,2,0,3,0.00
2013-9-26,65.6,59.7,50.1,57.3,53.7,47.5,93,81,67,30.11,29.94,3,1,6,0.00
2013-9-27,64.9,58.1,48.2,55.6,52.1,46.0,93,81,64,30.27,30.10,4,1,7,0.00
2013-9-28,72.6,60.1,50.5,58.4,53.7,48.4,94,81,58,30.32,30.25,4,1,7,0.00
2013-9-29,66.2,56.7,47.9,55.7,51.0,46.0,94,82,58,30.25,30.09,4,1,10,0.00
2013-9-30,71.0,61.6,53.9,59.7,56.7,51.9,93,85,63,30.09,29.99,3,1,7,0.00